Location: York
(31.8935°S, 116.7682°E)
Time: 09:11:52
(UTC+08:00)

N. Korean satellite - Pass Details

Date: 20 May 2021
Orbit: 450 x 500 km, 97.2° (Epoch: 13 June)

Event Time Altitude Azimuth Distance (km) Brightness Sun altitude
Rises 05:01:48 0° 6° (N) 2,483 10.4 -24.4°
Reaches altitude 10° 05:03:49 10° 2° (N) 1,625 9.3 -23.9°
Enters shadow 05:04:26 15° 0° (N) 1,372 8.9 -23.8°
